ISS (ZARYA) 1 25544U 98067A 25351.82928960 .00007629 00000+0 14328-3 0 9994 2 25544 51.6309 117.2752 0003168 263.8701 96.1927 15.49640803543642 CSS (TIANHE) 1 48274U 21035A 25351.71045444 .00020350 00000+0 25362-3 0 9991 2 48274 41.4683 346.5260 0007703 74.1787 285.9900 15.59389869264806 ISS (NAUKA) 1 49044U 21066A 25351.82928960 .00007629 00000+0 14328-3 0 9990 2 49044 51.6309 117.2752 0003168 263.8701 96.1927 15.49640803230444 FREGAT DEB 1 49271U 11037PF 25349.97149260 .00003730 00000+0 85401-2 0 9998 2 49271 51.6469 189.8745 0862473 230.7116 121.4133 12.34468246202333 CSS (WENTIAN) 1 53239U 22085A 25351.71045444 .00020350 00000+0 25362-3 0 9994 2 53239 41.4683 346.5260 0007703 74.1787 285.9900 15.59389869173846 CSS (MENGTIAN) 1 54216U 22143A 25351.71045444 .00020350 00000+0 25362-3 0 9995 2 54216 41.4683 346.5260 0007703 74.1787 285.9900 15.59389869158643 SHENZHOU-20 (SZ-20) 1 63632U 25082A 25351.71045444 .00020350 00000+0 25362-3 0 9992 2 63632 41.4683 346.5260 0007703 74.1787 285.9900 15.59389869255306 PROGRESS-MS 31 1 64751U 25146A 25351.82928960 .00007629 00000+0 14328-3 0 9995 2 64751 51.6309 117.2752 0003168 263.8701 96.1927 15.49640803 6751 TIANZHOU-9 1 64786U 25149A 25351.71045444 .00020350 00000+0 25362-3 0 9997 2 64786 41.4683 346.5260 0007703 74.1787 285.9900 15.59389869255307 CREW DRAGON 11 1 65077U 25166A 25351.82928960 .00007629 00000+0 14328-3 0 9999 2 65077 51.6309 117.2752 0003168 263.8701 96.1927 15.49640803 2142 DRAGON CRS-33 1 65304U 25186A 25351.82928960 .00007629 00000+0 14328-3 0 9994 2 65304 51.6309 117.2752 0003168 263.8701 96.1927 15.49640803 110 PROGRESS-MS 32 1 65586U 25204A 25351.82928960 .00007629 00000+0 14328-3 0 9997 2 65586 51.6309 117.2752 0003168 263.8701 96.1927 15.49640803 279 CYGNUS NG-23 1 65616U 25208A 25351.82928960 .00007629 00000+0 14328-3 0 9995 2 65616 51.6309 117.2752 0003168 263.8701 96.1927 15.49640803 228 DRAGONFLY 1 65729U 98067XH 25351.56750399 .00160588 00000+0 11078-2 0 9995 2 65729 51.6243 111.0116 0007206 308.5140 51.5212 15.73531298 13924 1998-067XK 1 65731U 98067XK 25351.58338789 .00085225 00000+0 79229-3 0 9992 2 65731 51.6289 112.6400 0004759 277.2608 82.7846 15.66666293 13904 RSP-03 1 65732U 98067XL 25351.57888421 .00115432 00000+0 93703-3 0 9992 2 65732 51.6262 111.8477 0005617 283.4279 76.6092 15.69845633 13925 GHS-01 1 65733U 98067XM 25351.63632508 .00211757 00000+0 12494-2 0 9997 2 65733 51.6275 109.9788 0007867 312.8661 47.1678 15.76951537 13959 YOTSUBA-KULOVER 1 65941U 98067XN 25351.70993872 .00059314 00000+0 71726-3 0 9993 2 65941 51.6282 114.9832 0001557 303.5564 56.5280 15.60118660 10633 BOTAN 1 65942U 98067XP 25351.70401083 .00095662 00000+0 99084-3 0 9995 2 65942 51.6283 114.1939 0002844 279.5083 80.5590 15.63910316 10646 E-KAGAKU-1 1 65943U 98067XQ 25351.71003786 .00061026 00000+0 73791-3 0 9999 2 65943 51.6296 114.9884 0001423 240.8217 119.2634 15.60109171 10634 HRC MONOBLOCK CAMERA 1 66052U 98067XR 25351.85897500 .00030240 00000+0 45614-3 0 9998 2 66052 51.6291 115.9740 0002713 206.7069 153.3783 15.54495982 9635 HTV-X1 1 66174U 25241A 25351.82928960 .00007629 00000+0 14328-3 0 9992 2 66174 51.6309 117.2752 0003168 263.8701 96.1927 15.49640803 510 SZ-21 MODULE 1 66515U 25246C 25351.26873890 .00022864 00000+0 25031-3 0 9996 2 66515 41.4771 348.4140 0005990 284.3104 75.7070 15.62718015 5151 SHENZHOU-22 1 66645U 25272A 25351.71045444 .00020350 00000+0 25362-3 0 9990 2 66645 41.4683 346.5260 0007703 74.1787 285.9900 15.59389869263571 SOYUZ-MS 28 1 66664U 25275A 25351.82928960 .00007629 00000+0 14328-3 0 9993 2 66664 51.6309 117.2752 0003168 263.8701 96.1927 15.49640803 1289 1998-067XS 1 66906U 98067XS 25351.69147340 .00024822 00000+0 42869-3 0 9996 2 66906 51.6309 117.8563 0003138 226.0893 133.9837 15.50834133 2389 1998-067XT 1 66907U 98067XT 25351.81411976 .00054815 00000+0 89323-3 0 9991 2 66907 51.6304 117.1744 0003984 257.0045 103.0500 15.52074588 2401 1998-067XU 1 66908U 98067XU 25351.62034166 .00054848 00000+0 89135-3 0 9990 2 66908 51.6303 118.1303 0004108 254.9738 105.0797 15.52149323 2373 SILVERSAT 1 66909U 98067XV 25351.61959636 .00058931 00000+0 95195-3 0 9998 2 66909 51.6308 118.1251 0003993 257.3923 102.6620 15.52286885 2378 1998-067XW 1 66910U 98067XW 25351.61784312 .00051432 00000+0 83128-3 0 9999 2 66910 51.6302 118.1137 0004529 233.5237 126.5336 15.52327753 2376 1998-067XX 1 66911U 98067XX 25351.61613211 .00061259 00000+0 97424-3 0 9991 2 66911 51.6305 118.1027 0004219 237.6725 122.3857 15.52703134 2363 1998-067XY 1 66912U 98067XY 25351.62311855 .00044013 00000+0 73169-3 0 9991 2 66912 51.6301 118.1487 0004152 250.0151 110.0391 15.51610656 2360